This is the latest recevied weather packets stored in our database for station/object OK2ILA-1. If no packets are shown the sender has not sent any weather packets the latest 10 day(s).
| Time | Temp. | Humidity | Pressure | Rain* | Wind** | Luminosity | Snow |
|---|---|---|---|---|---|---|---|
| 1787997431 | 23.89° C | 100% | 1018 hPa | 0 mm | - | - | - |
| 1787996710 | 23.33° C | 100% | 1018.1 hPa | 0 mm | - | - | - |
| 1787995989 | 22.78° C | 100% | 1018.1 hPa | 0 mm | - | - | - |
| 1787995269 | 23.33° C | 100% | 1017.8 hPa | 0 mm | - | - | - |
| 1787994548 | 22.78° C | 100% | 1017.7 hPa | 0 mm | - | - | - |
| 1787993828 | 22.78° C | 100% | 1017.7 hPa | 0 mm | - | - | - |
| 1787993107 | 22.22° C | 100% | 1017.8 hPa | 0 mm | - | - | - |
| 1787992386 | 22.22° C | 100% | 1017.8 hPa | 0 mm | - | - | - |
| 1787991665 | 22.78° C | 100% | 1017.8 hPa | 0 mm | - | - | - |
| 1787990945 | 22.22° C | 100% | 1017.7 hPa | 0 mm | - | - | - |
| 1787990224 | 21.67° C | 100% | 1017.6 hPa | 0 mm | - | - | - |
| 1787989503 | 21.11° C | 100% | 1017.5 hPa | 0 mm | - | - | - |
| 1787988783 | 20.56° C | 100% | 1017.5 hPa | 0 mm | - | - | - |
| 1787988062 | 20° C | 100% | 1017.5 hPa | 0 mm | - | - | - |
| 1787987341 | 20° C | 100% | 1017.5 hPa | 0 mm | - | - | - |
| 1787986621 | 19.44° C | 100% | 1017.4 hPa | 0 mm | - | - | - |
| 1787985900 | 18.89° C | 100% | 1017.4 hPa | 0 mm | - | - | - |
| 1787985179 | 17.78° C | 100% | 1017.4 hPa | 0 mm | - | - | - |
| 1787984459 | 17.22° C | 100% | 1017.5 hPa | 0 mm | - | - | - |
| 1787983738 | 17.22° C | 100% | 1017.7 hPa | 0 mm | - | - | - |
| 1787983017 | 17.22° C | 100% | 1017.7 hPa | 0 mm | - | - | - |
| 1787982296 | 16.67° C | 100% | 1017.6 hPa | 0.25 mm | - | - | - |
| 1787981576 | 16.67° C | 100% | 1016.9 hPa | 0.51 mm | - | - | - |
| 1787980855 | 16.67° C | 100% | 1016.5 hPa | 0.51 mm | - | - | - |
| 1787980135 | 16.67° C | 100% | 1016.3 hPa | 0.76 mm | - | - | - |
* Rain latest hour (hover to see other rain measurements)
** Current wind speed in m/s (hover to see current wind gust speed)